Date String (YYYY-MM-DD hh:mm:ss) UTC,Instrument flags,absolute air pressure of the measurement (hPa),sample flow rate (lpm),inlet stack bypass flow (lpm),air temperature of the measurement (°C),ambient temperature measured by the external sensor (°C),aerosol sample conditioner tube jacket temperature (°C),OPC LED temperature (°C),internal box temperature (°C),relative humidity of the measurement (%),span deviation,mass concentration of particles derived from Lorenz-Mie calculation of OPC scattering (μg/m³),mass concentration of particles derived from Lorenz-Mie calculation of OPC scattering (μg/m³),mass concentration of particles derived from Lorenz-Mie calculation of OPC scattering (μg/m³)
DateTimeUTC,F1_M11,P_M11,Q1_M11,Q2_M11,T1_M11,T2_M11,T3_M11,T4_M11,T5_M11,U1_M11,ZSPAN_M11,X0_M11,X2_M11,X1_M11
2023-09-03 10:00:00,SystemResetWarning,0833.6,5.00,000.00,028.1,026.6,000.0,036.5,029.7,28.4,0000.0,0003.88,0002.05,0001.58
2023-09-03 10:01:00,SystemResetWarning,0833.6,5.00,000.00,028.1,026.8,000.0,036.5,029.8,28.4,0000.0,0003.87,0002.04,0001.57
2023-09-03 10:02:00,SystemResetWarning,0833.6,5.01,000.00,028.2,026.9,000.0,036.5,029.8,28.4,0000.0,0003.80,0002.03,0001.57
2023-09-03 10:03:00,SystemResetWarning,0833.6,4.99,000.00,028.2,027.1,000.0,036.6,029.9,28.2,0000.0,0003.08,0002.00,0001.58
2023-09-03 10:04:00,SystemResetWarning,0833.6,4.99,000.00,028.3,027.2,000.0,036.6,030.0,28.1,0000.0,0002.85,0002.02,0001.59
2023-09-03 10:05:00,SystemResetWarning,0833.6,4.99,000.00,028.3,027.0,000.0,036.6,029.9,28.2,0000.0,0003.04,0002.07,0001.61
2023-09-03 10:06:00,SystemResetWarning,0833.5,5.00,000.00,028.2,025.6,000.0,036.5,029.4,27.9,0000.0,0003.13,0002.11,0001.63
2023-09-03 10:07:00,SystemResetWarning,0833.5,5.00,000.00,028.1,024.8,000.0,036.4,029.3,28.2,0000.0,0003.22,0002.16,0001.65
2023-09-03 10:08:00,SystemResetWarning,0833.5,5.00,000.00,028.0,024.9,000.0,036.4,029.2,28.8,0000.0,0003.40,0002.24,0001.66
2023-09-03 10:09:00,SystemResetWarning,0833.5,5.01,000.00,028.0,025.2,000.0,036.4,029.2,28.8,0000.0,0003.65,0002.21,0001.66
2023-09-03 10:10:00,SystemResetWarning,0833.5,5.00,000.00,028.0,025.5,000.0,036.4,029.4,28.5,0000.0,0003.84,0002.17,0001.67
2023-09-03 10:11:00,SystemResetWarning,0833.5,4.99,000.00,028.0,025.8,000.0,036.4,029.5,28.4,0000.0,0004.23,0002.14,0001.68
2023-09-03 10:12:00,SystemResetWarning,0833.5,5.00,000.00,028.0,026.1,000.0,036.4,029.6,28.2,0000.0,0004.48,0002.17,0001.70
2023-09-03 10:13:00,SystemResetWarning,0833.6,5.01,000.00,028.0,026.4,000.0,036.5,029.6,28.1,0000.0,0004.63,0002.24,0001.73
2023-09-03 10:14:00,SystemResetWarning,0833.6,5.00,000.00,028.1,026.6,000.0,036.5,029.7,28.0,0000.0,0004.64,0002.26,0001.74
2023-09-03 10:15:00,SystemResetWarning,0833.5,4.99,000.00,028.1,026.8,000.0,036.5,029.8,27.9,0000.0,0004.62,0002.27,0001.75
2023-09-03 10:16:00,SystemResetWarning,0833.5,5.00,000.00,028.2,027.0,000.0,036.5,029.8,27.9,0000.0,0004.61,0002.30,0001.77
2023-09-03 10:17:00,SystemResetWarning,0833.5,5.00,000.00,028.2,027.1,000.0,036.5,029.9,27.8,0000.0,0004.48,0002.27,0001.77
2023-09-03 10:18:00,SystemResetWarning,0833.4,5.01,000.00,028.3,027.2,000.0,036.6,029.9,28.0,0000.0,0005.24,0002.27,0001.78
2023-09-03 10:19:00,SystemResetWarning,0833.4,5.00,000.00,028.3,027.3,000.0,036.6,030.0,28.2,0000.0,0005.38,0002.23,0001.77
2023-09-03 10:20:00,SystemResetWarning,0833.4,4.99,000.00,028.3,027.1,000.0,036.6,029.9,28.1,0000.0,0005.32,0002.25,0001.78
2023-09-03 10:21:00,SystemResetWarning,0833.4,5.00,000.00,028.2,025.6,000.0,036.5,029.5,28.0,0000.0,0004.98,0002.27,0001.77
2023-09-03 10:22:00,SystemResetWarning,0833.4,5.00,000.00,028.1,024.8,000.0,036.5,029.3,28.1,0000.0,0004.71,0002.30,0001.78
2023-09-03 10:23:00,SystemResetWarning,0833.4,5.00,000.00,028.0,024.9,000.0,036.4,029.2,28.3,0000.0,0004.33,0002.29,0001.77
2023-09-03 10:24:00,SystemResetWarning,0833.4,4.99,000.00,028.0,025.2,000.0,036.5,029.3,28.4,0000.0,0004.81,0002.23,0001.77
2023-09-03 10:25:00,SystemResetWarning,0833.4,4.99,000.00,028.0,025.6,000.0,036.5,029.4,28.4,0000.0,0005.57,0002.20,0001.76
2023-09-03 10:26:00,SystemResetWarning,0833.4,5.00,000.00,028.0,025.9,000.0,036.5,029.5,28.4,0000.0,0005.68,0002.23,0001.76
2023-09-03 10:27:00,SystemResetWarning,0833.4,5.01,000.00,028.0,026.2,000.0,036.5,029.6,28.3,0000.0,0005.60,0002.21,0001.76
2023-09-03 10:28:00,SystemResetWarning,0833.4,5.00,000.00,028.1,026.4,000.0,036.5,029.7,28.2,0000.0,0005.74,0002.23,0001.76
2023-09-03 10:29:00,SystemResetWarning,0833.4,4.99,000.00,028.1,026.7,000.0,036.5,029.7,28.2,0000.0,0005.02,0002.21,0001.76
2023-09-03 10:30:00,SystemResetWarning,0833.4,5.00,000.00,028.2,026.8,000.0,036.5,029.8,28.1,0000.0,0004.70,0002.20,0001.76
2023-09-03 10:31:00,SystemResetWarning,0833.4,5.00,000.00,028.2,027.0,000.0,036.5,029.8,28.8,0000.0,0004.75,0002.25,0001.77
2023-09-03 10:32:00,SystemResetWarning,0833.4,5.00,000.00,028.2,027.1,000.0,036.6,029.9,29.4,0000.0,0004.75,0002.25,0001.79
2023-09-03 10:33:00,SystemResetWarning,0833.4,5.00,000.00,028.3,027.3,000.0,036.6,030.0,29.3,0000.0,0004.74,0002.24,0001.79
2023-09-03 10:34:00,SystemResetWarning,0833.4,5.00,000.00,028.3,027.4,000.0,036.6,030.0,29.0,0000.0,0004.83,0002.28,0001.80
2023-09-03 10:35:00,SystemResetWarning,0833.4,5.00,000.00,028.4,027.4,000.0,036.6,030.0,29.4,0000.0,0005.40,0002.31,0001.79
2023-09-03 10:36:00,SystemResetWarning,0833.3,4.99,000.00,028.4,026.3,000.0,036.6,029.7,29.5,0000.0,0004.92,0002.35,0001.77
2023-09-03 10:37:00,SystemResetWarning,0833.3,5.00,000.00,028.2,025.1,000.0,036.5,029.4,29.6,0000.0,0004.88,0002.31,0001.76
2023-09-03 10:38:00,SystemResetWarning,0833.3,5.00,000.00,028.1,024.9,000.0,036.5,029.3,29.6,0000.0,0004.72,0002.23,0001.74
2023-09-03 10:39:00,SystemResetWarning,0833.2,5.01,000.00,028.1,025.1,000.0,036.5,029.3,29.8,0000.0,0004.67,0002.21,0001.73
2023-09-03 10:40:00,SystemResetWarning,0833.3,5.01,000.00,028.0,025.4,000.0,036.5,029.4,29.8,0000.0,0004.67,0002.21,0001.72
2023-09-03 10:41:00,SystemResetWarning,0833.2,4.99,000.00,028.0,025.8,000.0,036.5,029.5,29.6,0000.0,0004.84,0002.23,0001.72
2023-09-03 10:42:00,SystemResetWarning,0833.3,5.00,000.00,028.1,026.1,000.0,036.5,029.6,29.4,0000.0,0004.92,0002.15,0001.71
2023-09-03 10:43:00,SystemResetWarning,0833.3,5.00,000.00,028.1,026.4,000.0,036.5,029.7,29.3,0000.0,0004.84,0002.12,0001.70
2023-09-03 10:44:00,SystemResetWarning,0833.3,5.01,000.00,028.1,026.6,000.0,036.5,029.8,29.2,0000.0,0005.26,0002.11,0001.69
2023-09-03 10:45:00,SystemResetWarning,0833.3,4.99,000.00,028.2,026.8,000.0,036.5,029.8,29.2,0000.0,0005.23,0002.07,0001.67
2023-09-03 10:46:00,SystemResetWarning,0833.2,5.01,000.00,028.2,026.9,000.0,036.6,029.9,29.2,0000.0,0004.36,0002.01,0001.67
2023-09-03 10:47:00,SystemResetWarning,0833.3,4.99,000.00,028.2,027.1,000.0,036.6,029.9,29.1,0000.0,0003.72,0001.99,0001.68
2023-09-03 10:48:00,SystemResetWarning,0833.3,4.99,000.00,028.3,027.2,000.0,036.6,030.0,29.0,0000.0,0003.71,0002.00,0001.68
2023-09-03 10:49:00,SystemResetWarning,0833.3,4.99,000.00,028.3,027.3,000.0,036.6,030.0,29.0,0000.0,0003.81,0002.04,0001.69
2023-09-03 10:50:00,SystemResetWarning,0833.3,5.00,000.00,028.4,027.4,000.0,036.7,030.1,28.9,0000.0,0003.81,0002.06,0001.69
2023-09-03 10:51:00,SystemResetWarning,0833.2,4.99,000.00,028.3,026.1,000.0,036.6,029.7,28.8,0000.0,0003.93,0002.09,0001.70
2023-09-03 10:52:00,SystemResetWarning,0833.3,5.01,000.00,028.2,024.5,000.0,036.5,029.2,29.0,0000.0,0003.99,0002.08,0001.69
2023-09-03 10:53:00,SystemResetWarning,0833.2,5.00,000.00,028.1,023.9,000.0,036.4,029.1,29.3,0000.0,0003.83,0002.12,0001.70
2023-09-03 10:54:00,SystemResetWarning,0833.3,5.01,000.00,027.9,024.1,000.0,036.4,029.0,29.5,0000.0,0003.90,0002.14,0001.69
2023-09-03 10:55:00,SystemResetWarning,0833.2,5.02,000.00,027.9,024.5,000.0,036.4,029.1,29.6,0000.0,0003.62,0002.17,0001.70
2023-09-03 10:56:00,SystemResetWarning,0833.3,4.99,000.00,027.9,024.9,000.0,036.4,029.2,29.6,0000.0,0003.50,0002.18,0001.71
2023-09-03 10:57:00,SystemResetWarning,0833.3,5.00,000.00,027.9,025.3,000.0,036.4,029.3,29.8,0000.0,0003.57,0002.20,0001.71
2023-09-03 10:58:00,SystemResetWarning,0833.2,5.00,000.00,027.9,025.7,000.0,036.4,029.4,29.8,0000.0,0003.77,0002.27,0001.73
2023-09-03 10:59:00,SystemResetWarning,0833.2,5.00,000.00,027.9,026.0,000.0,036.4,029.5,29.7,0000.0,0003.90,0002.29,0001.73
